Summerland, British Columbia

9:14 PM PDT on May 25, 2017 (GMT -0700)
Summerland

Weather History for CWUS - April, 2013

Change the Weather History Date:

Friday, April 26, 2013

  Actual Average (CYYF) Record (CYYF)
Temperature  
Mean Temperature 60 °F -  
Max Temperature 75 °F 61 °F 78 °F (2005)
Min Temperature 45 °F 38 °F 26 °F (2008)
Degree Days  
Heating Degree Days 5    
Growing Degree Days 10 (Base 50)    
Moisture  
Dew Point 34 °F    
Average Humidity 43    
Maximum Humidity 70    
Minimum Humidity 8    
Precipitation  
Precipitation 0.00 in - - ()
Sea Level Pressure  
Sea Level Pressure 30.08 in    
Wind  
Wind Speed 3 mph ()    
Max Wind Speed 10 mph    
Max Gust Speed 21 mph    
Averages and records for this station are not official NWS values.
T = Trace of Precipitation, MM = Missing Value Source: Averaged Metar Reports

Daily Weather History Graph

Daily Weather History Graph

Search for Another Location

Airport or City:

Trip Planner

Search our weather history database for the weather conditions in past years. The results will help you decide how hot, cold, wet, or windy it might be!

Date:

Astronomy

Apr. 26, 2013 Rise Set
Actual Time 5:44 AM PDT 8:09 PM PDT
Civil Twilight 5:09 AM PDT 8:44 PM PDT
Nautical Twilight 4:24 AM PDT 9:29 PM PDT
Astronomical Twilight 3:33 AM PDT 10:21 PM PDT
Moon 9:45 PM PDT 6:10 AM PDT
Length of Visible Light 15h 35m
Length of Day
14h 24m
Full, 99% of the Moon is Illuminated
Apr 26
Full
May 2
Last Quarter
May 9
New
May 17
First Quarter
May 24
Full

Hourly Weather History & Observations

Time (PDT) Temp. Dew Point Humidity Pressure Visibility Wind Dir Wind Speed Gust Speed Precip Events Conditions
12:00 AM 52.3 °F 36.3 °F 54% 30.04 in - WNW 3.5 mph - N/A   Unknown
1:00 AM 50.5 °F 36.7 °F 59% 30.05 in - West 3.5 mph - N/A   Unknown
2:00 AM 48.7 °F 36.7 °F 63% 30.05 in - West 3.5 mph - N/A   Unknown
3:00 AM 49.8 °F 37.2 °F 62% 30.06 in - West 2.3 mph - N/A   Unknown
4:00 AM 49.5 °F 37.0 °F 62% 30.07 in - WSW 2.3 mph - N/A   Unknown
5:00 AM 47 °F 37 °F 58% 30.07 in - West 3.5 mph - -  
5:00 AM 46.6 °F 36.9 °F 69% 30.07 in - West 3.5 mph - N/A   Unknown
6:00 AM 46.2 °F 37.0 °F 70% 30.09 in - SW 2.3 mph - N/A   Unknown
7:00 AM 52.7 °F 38.7 °F 59% 30.09 in - WNW 5.8 mph - N/A   Unknown
8:00 AM 54.3 °F 41.0 °F 61% 30.10 in - NW 2.3 mph - N/A   Unknown
9:00 AM 55.0 °F 42.4 °F 63% 30.12 in - West 1.2 mph - N/A   Unknown
10:00 AM 56.3 °F 44.1 °F 64% 30.12 in - WNW 2.3 mph - N/A   Unknown
11:00 AM 58 °F 43 °F 46% 30.12 in - NNW 1.2 mph - -  
11:00 AM 57.6 °F 42.6 °F 57% 30.12 in - NNW 1.2 mph - N/A   Unknown
12:00 PM 59.9 °F 42.4 °F 52% 30.12 in - ENE 1.2 mph - N/A   Unknown
1:00 PM 62.2 °F 42.1 °F 48% 30.11 in - East 3.5 mph - N/A   Unknown
2:00 PM 66.0 °F 41.2 °F 40% 30.11 in - ESE 4.6 mph - N/A   Unknown
3:00 PM 67.5 °F 40.5 °F 37% 30.09 in - East 4.6 mph - N/A   Unknown
4:00 PM 72.0 °F 26.8 °F 19% 30.07 in - West 3.5 mph - N/A   Unknown
5:00 PM 75 °F 25 °F 8% 30.05 in - West 10.4 mph - -  
5:00 PM 74.8 °F 25.3 °F 16% 30.05 in - West 10.4 mph 20.7 mph N/A   Unknown
6:00 PM 72.1 °F 24.3 °F 17% 30.04 in - West 8.1 mph - N/A   Unknown
7:00 PM 70.5 °F 23.0 °F 17% 30.04 in - West 6.9 mph - N/A   Unknown
8:00 PM 68.9 °F 20.1 °F 16% 30.04 in - West 10.4 mph 19.6 mph N/A   Unknown
9:00 PM 65.1 °F 24.8 °F 22% 30.06 in - NNW 4.6 mph - N/A   Unknown
10:00 PM 59.9 °F 26.8 °F 28% 30.07 in - SSW 2.3 mph - N/A   Unknown
11:00 PM 61 °F 25 °F 14% 30.06 in - NW 2.3 mph - -  
11:00 PM 61.2 °F 25.0 °F 25% 30.06 in - NW 2.3 mph - N/A   Unknown